Location: Newark
(50.0306°N, 2.3272°E)
Time: 12:41:36
(UTC+00:00)

PCSat - Visible Passes

Search period start: 29 January 2020 00:00
Search period end: 08 February 2020 00:00
Orbit: 785 x 794 km, 67.1° (Epoch: 28 January)

Date Brightness Start Highest point End Pass type
(mag) Time Alt. Az. Time Alt. Az. Time Alt. Az.
29 Jan 11.8 03:33:01 18° NNE 03:33:01 18° NNE 03:34:27 10° NNE visible
29 Jan 11.2 05:13:43 19° NNW 05:13:43 19° NNW 05:17:30 10° NNE visible
30 Jan 12.3 03:02:52 13° NNE 03:02:52 13° NNE 03:03:29 10° NE visible
30 Jan 11.3 04:43:34 21° N 04:43:34 21° N 04:46:34 10° NNE visible
30 Jan 11.6 06:25:19 10° NNW 06:27:49 13° N 06:30:19 10° NNE visible
31 Jan 11.5 04:13:24 20° N 04:13:24 20° N 04:15:38 10° NNE visible
31 Jan 11.6 05:54:06 11° NW 05:56:26 13° N 05:59:05 10° NNE visible
01 Feb 11.8 03:43:13 17° NNE 03:43:13 17° NNE 03:44:42 10° NNE visible
01 Feb 11.5 05:23:55 13° NNW 05:25:04 14° NNW 05:27:57 10° NNE visible
02 Feb 12.2 03:13:00 14° NNE 03:13:00 14° NNE 03:13:46 10° NNE visible
02 Feb 11.5 04:53:42 15° NNW 04:53:42 15° NNW 04:56:54 10° NNE visible
02 Feb 11.7 06:36:40 10° NNW 06:39:28 14° N 06:42:14 10° NE visible
03 Feb 12.5 02:42:47 10° NNE 02:42:47 10° NNE 02:42:50 10° NNE visible
03 Feb 11.6 04:23:29 16° N 04:23:29 16° N 04:25:54 10° NNE visible
03 Feb 11.7 06:05:30 10° NNW 06:08:05 13° N 06:10:39 10° NE visible
04 Feb 11.8 03:53:15 16° N 03:53:15 16° N 03:54:57 10° NNE visible
04 Feb 11.7 05:34:13 10° NNW 05:36:41 13° N 05:39:10 10° NNE visible
05 Feb 12.1 03:23:00 14° NNE 03:23:00 14° NNE 03:23:59 10° NNE visible
05 Feb 11.7 05:03:42 12° NNW 05:05:18 13° N 05:07:48 10° NNE visible
06 Feb 12.4 02:52:45 11° NNE 02:52:45 11° NNE 02:53:04 10° NNE visible
06 Feb 11.7 04:33:26 13° NNW 04:33:55 13° N 04:36:33 10° NNE visible
06 Feb 11.7 06:16:12 10° NNW 06:19:38 17° NNE 06:23:03 10° ENE visible
07 Feb 11.8 04:03:11 14° N 04:03:11 14° N 04:05:24 10° NNE visible
07 Feb 11.8 05:45:12 10° NNW 05:48:18 15° NNE 05:51:24 10° NE visible
